Terug naar catalogus

COSMOS 1480

ActiefNavigatieLEO
NORAD 14178·PAYLOAD·🇷🇺 Russia

Gelanceerd Jul 6, 1983 vanaf Plesetsk Cosmodrome

Loading…

Volgende Passages (komende 24 uur)

TLE

VersSource: Space-Track

Epoch: Sep 14, 2026, 20:59 UTC

1 14178U 83069H   26257.87452457 -.00000018  00000-0 -17477-4 0  9992
2 14178  74.0227  98.0482 0036450 242.1147 137.6740 12.43703104961093

Volg COSMOS 1480 in realtime met AllMySat

Download on the App Store